Погода в Ударном

Россия / Карачаево-Черкесская Республика     44°20′56″N   42°30′10″E
темп.,
°C
ветер,
м/с
пор.,
м/с
влажн.,
%
обл.,
%
осадки,
мм/ч
давл.,
гПа
погр.,
м
12 апреля, пн
пн1200:00+6з118988 0.0 101710
03:00+5з239187 0.0 101936
06:00+6з3886100 0.0 1020365
09:00+7з4788100 0.1 1021396
12:00+7зсз3585100 0.1 1022426
15:00+7з2384100 0.1 1022234
18:00+7з2388100 0.0 1022158
21:00+6з2392100 0.0 1023135
13 апреля, вт
вт1300:00+6з1192100 0.0 102327
03:00+6зюз1191100 0.0 102317
06:00+6в0093100 0.0 102312
09:00+7св1187100 0.1 1022260
12:00+7з1294100 2.3 1022178
15:00+8зсз1290100 4.6 1022262
18:00+7зсз2391100 0.0 1021172
21:00+7зсз2593100 0.1 1021179
14 апреля, ср
ср1400:00+6з2496100 1.6 1020143
03:00+6з3894100 5.0 1019414
06:00+6з5989100 0.5 1019493
09:00+7з5887100 0.5 1019501
12:00+10зсз6776100 0.0 1018704
15:00+10зсз457794 0.0 1018634
18:00+10зсз3578100 0.1 1017451
21:00+7з229127 0.1 101828
15 апреля, чт
чт1500:00+6зюз2290100 0.0 101717
03:00+5зюз22880 0.0 101711
06:00+5юз11830 0.0 101810
09:00+12зюз01585 0.0 1017432
12:00+16ссв213898 0.0 10151240
15:00+18св32338 0.0 10141627
18:00+14св3451100 0.0 101572
21:00+11в016094 0.0 101710
16 апреля, пт
пт1600:00+9в01655 0.0 101710
03:00+8ю11682 0.0 101710
06:00+8зюз116919 0.0 101710
09:00+14в34555 0.0 1017550
12:00+18в674464 0.0 10151638
15:00+19вюв773988 0.0 10141857
18:00+16вюв6115399 0.1 1014406
21:00+9зюз3592100 2.3 1019221